UUDD

Moscow/Domodedovo International Airport

Airport
ICAO code
UUDD
IATA Code
DME
Summary
ICAO Region
EUR
ICAO Territory
Location

Domodedovo, Moscow Oblast,

Serving
Moscow
Elevation
588 ft
Coordinates
55° 24' 31" N , 37° 54' 12" E
KCC
Metar
Observation
UUDD 011330Z 18004MPS 9999 OVC014 M00/M03 Q1005 R88/520242 NOSIG
Station
Moscow / Domodedovo
Date/Time
2023-02-01 13:30:00
Wind direction
180°
Lowest cloud amount
overcast
Temperature
-0°C
Dew point
-3°C
Humidity
80%
QNH
1005 hPa
Weather condition
n/a

Description

International airport serving Moscow, Russia.

Climatology

Humid Continental climate (Köppen climate classification Dfb) - Variable weather patterns and a large seasonal temperature variance. Summers are often warm and humid with frequent thunderstorms and winters can be very cold with frequent snowfall and persistent snow cover.

Runways

Designator Length Width Surface Rops
14C/32C 2600 45 CON Yes/Yes
14R/32L 3500 70 CON Yes/Yes
14L/32R 3794 53 CON Yes/Yes

Airport map

Aerial View

SKYbrary Partners:

Safety knowledge contributed by: